#timestamp,LO_Frequency,Hit,StdDev 
1618786815.7,286046998.7,N
1618786835.6,286046999.2,N
1618786855.4,286046998.9,N
1618786875.3,286046998.2,Y
1618786895.1,286047000.3,P
1618786915.8,286047000.5,N
1618786935.7,286047001.0,N
1618786955.5,286047001.0,N
1618786975.4,286047001.0,N
1618786995.2,286046999.9,N
1618787015.0,286047000.9,N
1618787015.9,286047000.9,N
1618787035.8,286047000.4,N
1618787055.6,286047000.5,N
1618787075.4,286047000.2,N
1618787095.3,286047000.2,N
1618787115.1,286046999.9,N
1618787135.9,286047000.3,N
1618787155.7,286047001.0,N
1618787175.5,286047000.9,N
1618787195.4,286047000.7,N
1618787215.2,286047000.7,N
1618787235.0,286047000.5,N
1618787235.9,286047000.5,N
1618787255.8,286047000.6,N
1618787275.6,286047001.0,N
1618787295.5,286046998.1,Y
1618787315.3,286046999.2,P
1618787335.1,286047000.8,N
1618787355.9,286046998.1,N
1618787375.7,286046998.5,N
1618787395.5,286046998.8,N
1618787415.4,286046998.7,N
1618787435.2,286046998.3,N
1618787455.1,286046998.5,N
1618787456.0,286046998.5,N
1618787475.8,286046998.7,N
1618787495.6,286046998.7,N
1618787515.5,286046998.2,N
1618787535.3,286046998.3,N
1618787555.1,286046998.3,N
1618787575.9,286047000.7,N
1618787595.7,286047000.3,N
1618787615.6,286047000.7,N
1618787635.4,286047000.8,N
1618787655.2,286047001.0,N
1618787675.1,286047000.7,N
1618787676.0,286047000.7,N
1618787695.8,286047000.7,N
1618787715.7,286047000.7,N
1618787735.5,286047001.2,N
1618787755.3,286047000.7,N
1618787775.2,286047001.2,N
1618787795.9,286047001.2,N
1618787815.7,286047000.9,N
1618787835.6,286047000.6,N
1618787855.4,286047001.0,N
1618787875.3,286047001.1,N
1618787895.1,286047000.7,N
1618787896.0,286047000.7,N
1618787915.8,286047000.7,N
1618787935.7,286047001.2,N
1618787955.5,286047000.7,N
1618787975.4,286047001.0,N
1618787995.2,286047000.9,N
1618788015.0,286047000.8,N
1618788015.9,286047000.8,N
1618788035.8,286046998.1,N
1618788055.6,286047001.1,N
1618788075.4,286046998.1,N
1618788095.3,286046998.8,N
1618788115.1,286047000.8,N
1618788135.9,286047000.7,N
1618788155.7,286047000.7,N
1618788175.5,286047000.7,N
1618788195.4,286046998.2,N
1618788215.2,286047001.1,N
1618788235.0,286047001.1,N
1618788236.0,286047001.1,N
1618788255.8,286046998.5,N
1618788275.6,286047000.6,N
1618788295.5,286046998.5,N
1618788315.3,286046998.2,N
1618788335.1,286046998.6,N
1618788355.9,286046998.4,N
1618788375.7,286046998.6,N
1618788395.6,286046998.6,N
1618788415.4,286046998.3,N
1618788435.2,286046998.7,N
1618788455.1,286046998.7,N
1618788456.0,286046998.7,N
1618788475.8,286046998.9,N
1618788495.6,286046996.9,N
1618788515.5,286046998.7,N
1618788535.3,286046998.2,N
1618788555.2,286046998.3,N
1618788575.9,286046998.7,N
1618788595.7,286046998.2,N
1618788615.6,286046998.9,N
1618788635.4,286046998.4,N
1618788655.2,286046998.6,N
1618788675.1,286046998.3,N
1618788676.0,286046998.3,N
1618788695.8,286046998.3,N
1618788715.7,286046998.4,N
1618788735.5,286046998.4,N
1618788755.3,286046998.4,N
1618788775.2,286046998.6,N
1618788795.0,286046998.3,N
1618788795.9,286046998.3,Y
1618788815.8,286047000.2,P
1618788835.6,286047002.4,N
1618788855.4,286047000.1,N
1618788875.3,286047002.7,N
1618788895.1,286047002.4,N
1618788915.9,286047002.6,N
1618788935.7,286047002.2,N
1618788955.5,286047002.2,N
1618788975.4,286047002.6,N
1618788995.2,286047002.7,N
1618789015.0,286047002.7,N
1618789016.0,286047002.7,N
1618789035.8,286047002.3,N
1618789055.6,286047002.4,N
1618789075.5,286047002.3,N
1618789095.3,286047002.3,N
1618789115.1,286047002.3,N
1618789135.9,286047002.7,N
1618789155.7,286046999.7,N
1618789175.6,286047002.4,N
1618789195.4,286047002.8,N
1618789215.2,286047000.5,N
1618789235.1,286047000.1,N
1618789236.0,286047000.1,N
1618789255.8,286047000.1,N
1618789275.6,286046999.8,N
1618789295.5,286047002.8,N
1618789315.3,286046999.8,N
1618789335.2,286047000.1,N
1618789355.9,286046999.8,N
1618789375.7,286047000.4,N
1618789395.6,286047000.1,N
1618789415.4,286047000.2,N
1618789435.2,286047002.7,N
1618789455.1,286047000.0,N
1618789456.0,286047000.0,N
1618789475.8,286047000.9,N
1618789495.7,286047000.9,N
1618789515.5,286047000.0,N
1618789535.3,286047000.0,N
1618789555.2,286047000.2,N
1618789575.0,286047000.1,N
1618789575.9,286047000.1,N
1618789595.8,286047000.5,N
1618789615.6,286047001.0,N
1618789635.4,286046999.9,N
1618789655.3,286047000.8,N
1618789675.1,286047000.9,N
1618789695.9,286047000.7,N
1618789715.7,286047000.9,N
1618789735.5,286047000.0,N
1618789755.4,286047000.2,N
1618789775.2,286047000.0,N
1618789795.0,286046999.9,N
1618789795.9,286046999.9,N
1618789815.8,286046999.9,N
1618789835.6,286046999.7,N
1618789855.5,286047000.2,N
1618789875.3,286047000.1,N
1618789895.1,286047002.7,Y
1618789915.9,286047002.6,P
1618789935.7,286047002.7,N
1618789955.6,286046999.7,N
1618789975.4,286047002.7,N
1618789995.2,286047000.2,N
1618790015.1,286046999.9,N
1618790016.0,286046999.9,N
1618790035.8,286047000.3,N
1618790055.7,286047002.8,N
1618790075.5,286047000.4,N
1618790095.3,286046999.9,N
1618790115.2,286046999.9,N
1618790135.0,286047000.2,N
1618790135.9,286047000.2,N
1618790155.8,286047002.8,N
1618790175.6,286047002.8,N
1618790195.4,286046999.8,N
1618790215.3,286047002.4,N
1618790235.1,286046999.8,N
1618790236.0,286046999.8,N
1618790255.8,286046999.7,N
1618790275.7,286046999.8,N
1618790295.5,286047002.3,N
1618790315.4,286047002.4,N
1618790335.2,286047002.8,N
1618790355.0,286047002.5,N
1618790355.9,286047002.5,N
1618790375.8,286047002.6,N
1618790395.6,286047001.4,N
